Temp
14 14 14 15 15 15 15 15 15 15 15 14 14 14 14 13 12 11 11 12 12 12 12 11 11 11 11 10 11 11 11 11 10 10 10 10 10 10 9 9 9 9 9 9
14 14 15 14 15 14 15 15 15 16 14 14 14 14 15 14 13 12 12 12 13 12 13 13 12 11 11 10 11 11 11 11 10 9 9 9 9 9 9 9 9 9 9 9
14 15 15 15 15 15 15 15 15 15 14 15 14 14 16 15 14 13 12 12 11 11 13 12 12 11 12 10 11 11 11 10 10 9 9 9 10 10 10 10 10 10 9 9
14 15 15 15 16 15 15 15 15 15 15 14 13 14 16 16 15 14 13 12 12 11 12 13 11 11 11 10 10 11 10 10 10 10 10 10 9 9 9 9 9 10 10 9
14 15 15 15 15 16 16 15 15 15 14 14 14 12 16 16 14 14 12 12 12 11 11 12 12 12 11 11 10 10 10 10 10 10 10 10 9 9 8 9 10 10 10 9
14 14 15 16 16 16 16 15 14 14 15 13 13 13 16 15 14 14 14 13 12 12 11 11 12 12 11 11 10 10 10 10 10 10 10 10 9 9 9 9 9 9 9 9
14 15 15 15 15 16 15 14 14 11 11 11 13 13 16 15 14 14 13 12 13 13 13 12 12 13 12 12 10 10 10 10 10 10 10 9 9 9 9 9 9 9 9 10
14 14 15 15 16 16 16 14 14 10 9 12 12 14 16 15 13 14 14 13 13 14 14 13 12 12 12 12 10 11 10 10 10 9 9 9 9 9 9 9 9 9 9 9
14 15 16 16 16 16 15 15 15 15 14 12 13 15 17 16 15 16 16 15 15 15 14 14 12 12 12 12 11 11 11 10 10 9 8 8 9 9 9 9 9 9 9 9
15 15 16 16 16 17 16 15 14 13 12 12 11 13 17 17 16 16 16 15 16 16 15 14 13 13 12 12 10 11 11 10 9 9 8 8 8 9 9 9 8 8 8 9
16 16 16 15 16 16 16 16 15 15 15 11 9 13 17 17 16 16 17 16 15 15 15 14 13 13 12 11 11 11 11 10 9 9 8 8 9 9 9 9 9 9 9 9
16 16 16 16 17 17 17 17 16 17 15 15 16 16 17 17 17 15 17 15 16 14 14 13 13 13 13 12 12 11 11 10 9 8 8 8 9 8 8 9 9 8 8 9
17 16 16 16 16 17 17 18 18 17 17 17 15 17 18 17 17 15 15 15 16 15 14 13 12 13 13 12 12 11 10 9 8 9 9 9 9 9 9 9 8 9 9 9
17 17 16 15 17 18 17 17 17 18 17 17 17 18 17 17 18 17 16 15 15 15 14 14 13 14 13 12 12 11 10 10 9 9 9 8 9 8 8 9 8 8 8 8
17 17 17 17 17 17 17 17 17 17 18 17 18 18 17 17 17 17 16 16 16 16 15 15 14 14 13 12 11 12 11 10 9 9 9 8 8 8 9 9 9 9 8 9
16 17 17 17 17 17 17 17 17 18 18 18 18 18 17 16 16 16 16 17 16 15 16 15 14 14 13 13 12 12 11 10 10 10 9 9 9 9 9 9 9 9 9 9
15 16 16 16 17 17 17 17 17 17 18 18 18 18 17 17 17 16 16 16 16 15 14 15 14 14 13 13 13 13 12 10 11 10 10 10 9 9 10 10 10 9 9 10
14 15 15 15 16 13 17 17 17 17 18 17 18 18 18 17 17 16 15 16 16 15 14 13 14 13 13 13 13 13 12 11 11 11 11 10 10 10 10 10 9 9 10 11
14 15 15 15 15 16 16 16 17 17 18 17 17 18 17 16 16 15 15 16 16 15 14 14 14 14 13 13 13 13 13 13 12 12 11 11 11 10 10 9 9 10 11 10
13 14 14 14 14 12 16 16 16 16 17 17 17 18 18 17 16 17 16 16 15 15 14 14 14 14 13 13 13 12 13 13 12 12 12 11 11 10 10 10 10 11 11 11
13 13 13 13 13 14 15 15 16 16 15 16 17 17 17 17 16 16 17 16 15 15 15 14 14 14 13 13 13 13 13 13 13 12 11 11 11 11 11 10 11 11 10 11
11 11 12 13 13 13 15 15 15 14 14 16 16 15 16 16 16 16 17 17 16 16 15 14 14 14 13 13 14 14 14 13 13 13 12 12 11 11 11 11 10 11 11 11
11 11 11 12 13 13 14 14 14 14 14 15 15 16 14 15 15 16 17 17 16 16 15 15 14 14 13 14 14 14 14 13 13 13 12 13 13 12 12 11 11 12 11 12
9 10 10 12 12 12 13 13 13 14 14 14 14 15 15 15 15 16 16 17 16 15 15 15 14 15 14 14 14 14 14 14 14 14 13 13 13 12 12 12 12 12 12 12
7 8 9 11 11 11 12 11 11 12 13 14 14 14 15 15 15 15 15 15 15 14 15 15 15 14 15 14 14 14 14 14 14 14 14 14 14 13 13 12 12 12 12 13
7 7 8 8 9 9 9 9 9 10 11 12 13 14 14 14 14 14 13 14 14 13 14 14 13 14 15 14 14 15 14 14 14 14 14 14 14 14 13 13 12 12 12 13
Height
3188 3190 3188 3191 3193 3193 3194 3193 3192 3194 3193 3193 3192 3192 3193 3192 3194 3193 3199 3196 3194 3192 3194 3198 3198 3201 3202 3201 3201 3201 3200 3200 3200 3201 3202 3204 3206 3209 3212 3213 3215 3218 3220 3223
3185 3183 3185 3189 3191 3191 3191 3190 3191 3191 3191 3191 3189 3187 3186 3186 3187 3188 3190 3196 3194 3195 3194 3197 3199 3200 3200 3200 3199 3199 3198 3195 3194 3197 3199 3201 3203 3206 3209 3210 3214 3216 3220 3221
3180 3180 3184 3185 3187 3188 3188 3188 3189 3188 3188 3187 3186 3182 3179 3180 3180 3182 3184 3188 3190 3192 3193 3196 3196 3198 3199 3198 3197 3197 3196 3194 3192 3194 3195 3197 3199 3202 3206 3209 3211 3214 3216 3219
3176 3177 3180 3182 3184 3184 3183 3184 3186 3186 3185 3184 3184 3178 3174 3172 3174 3179 3181 3183 3185 3188 3191 3193 3195 3197 3199 3198 3196 3195 3195 3194 3192 3192 3193 3196 3199 3203 3206 3206 3207 3210 3213 3216
3170 3175 3177 3179 3180 3181 3181 3183 3185 3184 3183 3183 3181 3179 3169 3169 3171 3172 3174 3175 3181 3185 3189 3190 3192 3195 3196 3196 3196 3194 3193 3193 3192 3191 3192 3194 3196 3200 3202 3204 3205 3205 3208 3212
3167 3172 3175 3176 3178 3180 3181 3181 3183 3183 3183 3181 3179 3178 3168 3166 3167 3167 3168 3171 3176 3182 3185 3186 3190 3192 3193 3191 3193 3192 3191 3192 3192 3191 3191 3192 3195 3198 3200 3203 3204 3205 3207 3211
3164 3165 3170 3174 3175 3175 3178 3179 3182 3184 3182 3180 3177 3176 3165 3163 3162 3163 3168 3171 3172 3175 3178 3180 3187 3187 3191 3188 3189 3189 3190 3191 3191 3189 3189 3191 3193 3195 3198 3201 3203 3205 3207 3210
3163 3161 3163 3169 3169 3169 3170 3178 3175 3185 3187 3174 3175 3171 3160 3159 3158 3161 3165 3166 3164 3169 3173 3175 3180 3186 3188 3186 3184 3187 3190 3189 3189 3186 3185 3187 3190 3193 3196 3198 3200 3203 3206 3208
3160 3156 3159 3163 3166 3166 3167 3173 3171 3170 3174 3171 3169 3164 3157 3156 3154 3158 3159 3158 3158 3165 3169 3173 3176 3180 3185 3182 3183 3187 3188 3187 3185 3182 3181 3184 3187 3191 3193 3196 3198 3201 3204 3206
3153 3154 3153 3159 3163 3164 3164 3170 3168 3171 3171 3169 3166 3162 3156 3156 3155 3156 3155 3151 3153 3160 3164 3169 3173 3179 3182 3182 3184 3185 3185 3185 3183 3180 3179 3181 3185 3188 3191 3194 3197 3199 3200 3203
3148 3152 3147 3155 3157 3159 3161 3161 3165 3164 3165 3163 3166 3159 3155 3153 3151 3152 3153 3154 3154 3157 3160 3164 3171 3175 3179 3180 3182 3182 3184 3182 3180 3178 3176 3178 3183 3186 3190 3193 3195 3198 3200 3203
3141 3144 3142 3149 3152 3152 3156 3156 3156 3158 3158 3157 3156 3150 3150 3150 3148 3148 3147 3147 3151 3157 3161 3164 3168 3172 3175 3180 3181 3181 3181 3180 3179 3176 3176 3177 3182 3186 3190 3192 3194 3197 3200 3202
3136 3140 3142 3143 3148 3148 3148 3148 3149 3150 3148 3150 3152 3146 3145 3147 3145 3144 3144 3146 3150 3155 3157 3163 3170 3170 3176 3179 3178 3179 3180 3179 3177 3175 3176 3178 3181 3186 3190 3193 3195 3197 3199 3202
3130 3132 3134 3137 3139 3142 3142 3143 3145 3147 3147 3145 3144 3140 3141 3143 3143 3141 3140 3141 3145 3151 3155 3159 3163 3170 3174 3176 3176 3178 3179 3178 3179 3178 3179 3180 3182 3186 3190 3193 3195 3196 3198 3200
3122 3124 3129 3132 3135 3138 3138 3140 3141 3141 3142 3142 3139 3138 3136 3137 3139 3137 3135 3139 3142 3147 3151 3155 3161 3166 3170 3173 3175 3178 3179 3179 3179 3181 3182 3183 3185 3188 3190 3193 3196 3198 3199 3200
3121 3120 3123 3126 3129 3131 3132 3134 3136 3137 3136 3135 3136 3135 3132 3135 3136 3137 3136 3133 3140 3146 3149 3153 3158 3164 3169 3171 3174 3176 3178 3179 3180 3182 3184 3185 3187 3188 3190 3193 3195 3198 3198 3198
3116 3119 3119 3120 3124 3125 3126 3129 3131 3131 3132 3132 3131 3131 3131 3131 3132 3134 3130 3132 3136 3143 3151 3152 3156 3161 3165 3169 3172 3176 3178 3179 3180 3182 3184 3186 3188 3189 3191 3193 3194 3195 3195 3197
3113 3115 3116 3117 3120 3120 3121 3125 3126 3127 3127 3128 3127 3128 3129 3126 3129 3128 3130 3134 3138 3144 3148 3152 3156 3160 3165 3168 3172 3175 3176 3178 3179 3180 3183 3186 3187 3189 3190 3193 3194 3194 3195 3196
3111 3112 3114 3115 3116 3117 3117 3119 3121 3123 3123 3120 3123 3125 3127 3124 3125 3129 3132 3135 3139 3143 3148 3151 3157 3160 3163 3166 3170 3173 3174 3176 3177 3180 3183 3185 3187 3188 3190 3192 3192 3192 3194 3195
3110 3110 3112 3113 3114 3114 3116 3117 3115 3116 3116 3115 3117 3119 3121 3123 3122 3127 3129 3134 3136 3142 3145 3148 3152 3158 3161 3164 3167 3169 3172 3174 3175 3179 3182 3183 3185 3186 3187 3189 3190 3192 3194 3195
3105 3107 3109 3109 3112 3112 3113 3112 3113 3113 3115 3111 3112 3113 3116 3119 3124 3125 3127 3131 3136 3140 3142 3144 3149 3156 3160 3162 3164 3166 3169 3172 3174 3176 3178 3181 3183 3184 3186 3187 3189 3191 3191 3192
3104 3104 3105 3106 3108 3112 3110 3111 3112 3112 3110 3110 3111 3113 3114 3117 3120 3122 3125 3128 3131 3135 3140 3145 3150 3155 3159 3161 3163 3165 3167 3170 3172 3174 3175 3177 3180 3181 3183 3186 3187 3187 3188 3190
3102 3102 3102 3106 3106 3107 3107 3108 3109 3109 3110 3111 3112 3115 3116 3117 3117 3119 3121 3123 3127 3133 3139 3143 3149 3153 3155 3157 3160 3163 3165 3167 3169 3170 3172 3174 3176 3178 3180 3183 3184 3185 3186 3187
3094 3094 3096 3100 3100 3100 3100 3102 3105 3106 3108 3111 3112 3114 3116 3119 3119 3117 3119 3122 3127 3131 3137 3142 3145 3149 3151 3153 3156 3161 3163 3164 3166 3168 3169 3169 3171 3174 3177 3180 3181 3183 3185 3186
3090 3089 3090 3093 3094 3094 3097 3097 3099 3102 3103 3106 3109 3111 3113 3115 3116 3118 3119 3121 3125 3130 3134 3135 3139 3143 3148 3151 3153 3156 3160 3163 3165 3166 3167 3168 3169 3172 3174 3177 3179 3181 3182 3184
3086 3085 3086 3086 3088 3090 3092 3092 3096 3099 3101 3101 3103 3106 3108 3111 3115 3117 3119 3121 3123 3126 3130 3131 3134 3138 3142 3145 3148 3152 3156 3158 3162 3164 3165 3167 3168 3169 3171 3173 3175 3178 3179 3181
Wind_Speed
12 15 21 10 14 15 16 11 5 5 7 9 8 15 18 21 23 19 21 23 19 18 16 15 15 19 11 10 12 11 15 16 18 19 20 23 22 21 16 14 11 13 11 13
16 23 15 15 17 16 15 18 9 9 10 14 10 10 18 20 29 23 26 25 27 23 18 18 14 13 13 12 10 12 14 15 15 17 17 21 20 23 19 19 18 17 11 15
20 15 13 18 15 16 16 21 9 5 5 5 16 21 9 19 20 25 29 29 27 30 30 24 22 18 13 10 10 12 11 9 12 16 18 22 26 27 21 17 15 17 15 14
21 17 20 12 13 17 17 13 14 8 9 9 11 8 18 12 10 17 31 31 29 33 32 25 20 9 9 7 8 11 10 8 9 14 16 19 20 20 19 19 18 19 21 19
26 16 16 16 14 9 15 9 14 13 10 9 10 8 12 15 10 13 19 32 31 26 30 29 18 23 11 12 10 11 12 10 8 9 14 16 18 19 18 18 14 14 18 23
29 25 23 23 22 18 15 12 11 10 9 6 7 7 15 14 10 9 8 22 28 29 30 33 20 20 22 15 13 12 10 9 9 10 12 14 17 15 18 14 10 11 18 21
29 31 29 23 20 22 16 14 3 3 3 6 5 9 19 17 16 5 13 11 24 32 31 33 29 7 9 9 14 10 9 6 5 8 15 16 16 15 17 18 15 16 17 20
27 30 28 21 16 23 24 23 8 5 6 4 5 8 19 23 8 8 10 12 25 30 29 30 27 18 8 7 7 11 11 9 11 13 16 18 20 16 17 20 19 19 18 18
26 34 24 21 13 14 21 29 14 12 12 4 4 11 18 8 3 10 15 17 25 25 32 20 25 24 13 4 6 13 12 10 11 10 16 19 18 20 17 20 21 20 19 17
29 30 27 21 14 13 8 11 5 11 4 3 4 11 14 12 9 6 10 9 14 22 24 21 22 16 11 8 9 17 15 14 10 11 14 19 19 21 20 18 16 19 20 19
31 30 30 20 19 20 15 13 15 14 8 7 2 7 18 15 12 6 7 14 14 26 26 21 23 14 9 6 11 16 18 18 14 14 14 18 22 20 20 18 17 17 16 15
31 23 36 30 19 20 19 20 23 13 11 10 7 16 19 14 19 5 7 17 25 29 26 30 23 12 11 7 9 13 9 16 14 7 14 16 21 20 21 14 13 15 16 18
32 37 31 29 27 25 20 25 30 31 24 21 11 16 17 14 15 11 15 20 26 30 26 32 26 17 12 5 5 9 7 6 1 5 11 17 20 20 17 15 16 13 15 16
34 35 35 31 23 10 12 17 26 30 27 22 19 21 19 12 11 19 19 18 23 22 26 27 27 17 10 5 4 13 13 11 8 9 13 17 18 17 17 17 13 5 15 21
31 40 32 28 25 21 9 7 6 14 26 27 26 21 15 17 11 11 25 19 19 22 26 20 28 17 12 7 7 15 15 13 12 9 12 14 16 17 15 15 13 9 13 13
10 14 28 26 24 25 22 17 13 12 11 12 21 24 19 13 11 9 19 25 20 22 29 27 25 16 12 5 6 21 18 16 11 9 9 11 13 14 14 12 9 8 11 7
8 13 13 17 20 23 24 29 16 12 12 17 13 15 15 16 12 14 25 20 18 29 38 22 22 17 10 4 4 14 20 21 15 11 12 11 12 14 12 12 12 11 6 5
9 11 15 14 14 6 28 28 27 19 16 19 15 12 7 11 13 7 25 15 30 29 31 32 19 16 11 7 6 11 17 19 17 18 14 14 14 16 12 12 13 10 6 5
3 15 12 11 15 21 15 18 25 21 19 23 14 13 12 14 14 15 24 18 29 30 28 29 19 15 16 11 11 10 15 16 19 19 17 16 15 16 15 13 11 8 6 6
11 7 9 3 1 5 22 10 14 13 19 15 16 17 20 21 22 9 26 6 32 33 32 29 22 17 17 15 15 14 14 16 17 19 17 17 17 16 14 13 11 10 9 9
15 15 10 8 3 3 7 10 5 11 8 9 7 19 25 21 16 15 12 13 13 31 31 30 26 22 20 18 18 15 15 15 15 16 17 19 20 19 19 16 14 13 9 7
7 7 9 11 7 6 13 10 6 1 3 4 4 26 25 22 20 19 16 14 14 19 31 21 29 22 22 18 17 14 11 12 17 18 17 17 17 15 16 15 13 9 8 9
19 9 11 7 8 11 19 18 11 8 7 8 6 12 18 19 15 15 15 21 18 23 25 24 22 17 20 19 16 14 11 11 14 18 19 18 16 15 14 12 9 8 9 10
19 17 13 13 14 13 18 17 14 16 19 13 10 9 10 13 13 11 13 20 24 26 30 24 21 17 16 19 18 13 13 7 6 12 17 17 16 15 15 13 10 9 9 10
7 12 8 11 10 12 15 18 19 21 21 21 18 14 13 13 14 12 19 27 27 32 34 25 27 19 22 21 21 18 14 13 8 8 14 16 16 16 17 15 12 10 11 12
18 11 9 10 17 15 20 19 16 16 19 21 23 24 21 14 10 14 21 28 31 29 29 24 33 33 27 30 25 21 17 16 14 13 11 14 14 15 17 17 13 11 11 13
Wind_Direction
193 236 236 223 256 266 261 252 249 251 296 289 273 242 231 217 216 241 242 229 235 245 253 256 288 303 302 304 269 251 260 259 245 229 221 216 213 216 219 235 221 213 228 230
214 247 234 260 280 249 258 251 262 305 299 277 287 270 274 243 229 228 237 228 242 243 255 260 271 281 305 316 287 273 279 277 243 221 214 212 212 210 222 220 220 225 223 217
223 228 257 248 247 239 250 239 264 278 241 285 271 286 265 280 249 237 230 233 243 243 255 269 261 259 282 295 294 278 292 283 238 216 211 209 207 209 217 223 237 241 237 226
237 238 256 231 246 237 236 272 248 247 245 254 220 273 311 289 266 226 224 235 233 236 254 260 244 249 276 286 305 274 286 287 247 227 216 213 215 221 225 227 238 245 242 219
220 237 243 227 252 290 320 258 221 239 236 235 243 263 293 304 284 255 241 225 220 232 243 243 257 242 260 280 279 284 274 269 256 225 215 211 215 215 215 225 240 235 204 194
243 247 258 259 260 248 317 244 215 263 281 258 258 266 287 276 340 271 209 221 225 232 228 243 245 242 255 240 253 267 268 268 248 232 220 212 213 214 213 216 216 185 184 192
239 245 256 268 263 239 239 224 284 331 328 230 272 282 281 283 305 329 230 230 233 233 227 232 228 219 289 223 225 243 241 221 253 276 233 220 205 209 213 204 201 190 187 196
246 266 245 248 258 251 246 222 156 147 235 212 198 244 290 318 249 140 323 270 225 231 234 224 230 240 270 195 211 228 215 234 290 272 240 221 211 207 201 201 197 198 200 204
238 252 241 256 277 236 197 213 269 216 255 174 202 275 326 121 130 333 309 261 253 230 220 229 228 227 237 248 219 221 216 249 306 269 229 211 205 203 197 193 202 204 207 210
231 252 239 251 273 286 264 236 133 211 223 250 259 279 271 352 282 304 313 289 259 224 217 221 217 211 218 206 218 225 232 254 289 320 221 204 199 197 195 192 199 202 206 211
232 237 260 258 253 264 246 198 240 241 217 159 211 266 315 295 298 314 266 217 228 216 211 204 202 210 211 185 222 237 240 252 270 298 217 198 196 192 190 191 198 207 206 198
226 230 247 258 268 271 261 274 217 229 240 214 236 265 287 289 302 245 202 211 215 213 218 212 202 219 211 197 223 228 243 257 281 253 200 193 186 181 180 188 180 168 180 188
227 224 238 253 259 262 258 261 251 231 239 230 208 270 285 284 284 228 201 210 217 214 204 203 209 220 235 211 217 187 201 198 67 177 177 171 173 173 177 171 166 184 199 201
234 227 224 230 246 235 276 252 242 246 239 238 237 286 277 256 284 235 241 212 214 217 207 199 210 230 236 190 177 168 146 139 113 129 145 152 158 160 169 168 165 162 179 184
220 221 227 234 242 247 264 276 295 308 249 254 259 273 245 260 272 274 233 229 224 224 206 211 220 223 236 199 176 172 174 143 143 143 125 141 152 161 173 169 154 158 150 178
210 204 212 219 228 251 263 270 288 306 323 317 264 269 241 227 225 223 219 223 229 214 219 225 206 219 209 170 184 200 199 162 149 159 151 155 164 165 160 156 173 210 209 226
251 261 250 244 239 252 265 262 271 291 302 319 294 284 250 276 273 262 227 201 204 203 212 210 216 220 210 179 197 205 212 200 205 198 193 175 169 174 176 167 211 229 213 225
261 264 269 259 255 244 259 263 267 278 286 311 299 253 267 245 270 223 181 196 199 202 203 214 226 208 221 199 205 201 211 202 191 199 205 207 194 188 188 220 222 220 213 212
258 233 242 235 229 243 244 254 262 262 269 295 290 248 201 201 206 192 192 190 198 197 206 216 224 225 223 219 222 224 217 212 205 205 210 201 197 206 213 218 216 208 214 198
246 207 203 241 335 235 256 265 269 273 259 269 259 249 215 197 198 212 201 143 194 204 214 219 214 228 228 231 221 229 219 217 213 204 209 217 218 221 225 223 210 211 212 193
238 251 251 257 256 245 206 287 313 260 243 237 247 209 206 209 193 188 186 169 169 207 213 212 220 231 223 229 214 223 218 213 213 211 205 204 210 217 218 211 203 201 196 187
284 304 287 262 242 259 249 288 306 340 200 216 243 184 195 205 215 200 192 200 204 201 209 210 216 233 223 226 206 207 211 203 205 206 207 214 216 214 211 205 201 194 189 189
262 256 278 273 282 274 267 260 291 278 252 240 226 197 195 188 181 184 209 182 193 193 193 202 213 224 220 210 197 202 200 221 220 210 204 211 214 218 217 208 199 199 196 190
230 255 263 249 243 260 237 260 256 247 244 237 218 202 204 195 187 172 178 204 196 179 182 193 216 204 192 194 187 196 201 213 240 222 212 215 219 218 216 207 200 191 196 197
233 238 219 214 188 176 195 178 178 199 215 222 220 197 196 183 192 172 173 189 190 192 193 214 198 215 234 209 193 191 203 225 228 241 225 221 219 217 214 206 199 190 193 197
236 226 186 200 189 173 150 148 162 196 213 204 215 221 215 222 202 153 169 190 196 194 204 225 210 218 226 210 203 199 206 221 239 237 243 235 229 220 215 209 203 203 199 202